This is the latest recevied weather packets stored in our database for station/object CT7BNL-13. If no packets are shown the sender has not sent any weather packets the latest 10 day(s).
| Time | Temp. | Humidity | Pressure | Rain* | Wind** | Luminosity | Snow |
|---|---|---|---|---|---|---|---|
| 1787995166 | 18.89° C | 79% | 1028.7 hPa | 0 mm | - | 493 W/m² | - |
| 1787994265 | 18.89° C | 80% | 1028.6 hPa | 0 mm | - | 377 W/m² | - |
| 1787993366 | 18.33° C | 84% | 1028.6 hPa | 0 mm | - | 310 W/m² | - |
| 1787992464 | 16.67° C | 89% | 1028.7 hPa | 0 mm | - | 265 W/m² | - |
| 1787991565 | 15.56° C | 93% | 1028.7 hPa | 0 mm | - | 170 W/m² | - |
| 1787990665 | 15.56° C | 93% | 1028.6 hPa | 0 mm | - | 176 W/m² | - |
| 1787989764 | 15.56° C | 96% | 1028.5 hPa | 0 mm | - | 126 W/m² | - |
| 1787988865 | 14.44° C | 97% | 1028.5 hPa | 0 mm | - | 103 W/m² | - |
| 1787987964 | 14.44° C | 97% | 1028.3 hPa | 0 mm | - | 66 W/m² | - |
| 1787987065 | 13.89° C | 97% | 1028.2 hPa | 0 mm | - | 61 W/m² | - |
| 1787986165 | 13.89° C | 97% | 1028.2 hPa | 0 mm | - | 49 W/m² | - |
| 1787985264 | 12.78° C | 97% | 1028.1 hPa | 0 mm | - | 28 W/m² | - |
| 1787984365 | 12.78° C | 97% | 1028.3 hPa | 0 mm | - | 18 W/m² | - |
| 1787983465 | 12.78° C | 97% | 1028.3 hPa | 0 mm | - | 6 W/m² | - |
| 1787982564 | 12.78° C | 97% | 1028.1 hPa | 0 mm | - | 1 W/m² | - |
| 1787981665 | 13.33° C | 96% | 1027.9 hPa | 0 mm | - | 0 W/m² | - |
| 1787980765 | 13.33° C | 96% | 1027.9 hPa | 0 mm | - | 0 W/m² | - |
| 1787979865 | 13.33° C | 96% | 1027.7 hPa | 0 mm | - | 0 W/m² | - |
| 1787978965 | 13.33° C | 96% | 1028 hPa | 0 mm | - | 0 W/m² | - |
| 1787978065 | 13.33° C | 96% | 1028.1 hPa | 0 mm | - | 0 W/m² | - |
| 1787977165 | 13.33° C | 96% | 1028 hPa | 0 mm | - | 0 W/m² | - |
| 1787976264 | 13.33° C | 96% | 1028 hPa | 0 mm | - | 0 W/m² | - |
| 1787975365 | 13.89° C | 96% | 1028.1 hPa | 0 mm | - | 0 W/m² | - |
| 1787974465 | 13.89° C | 95% | 1027.9 hPa | 0 mm | - | 0 W/m² | - |
| 1787973564 | 13.89° C | 95% | 1028 hPa | 0 mm | - | 0 W/m² | - |
* Rain latest hour (hover to see other rain measurements)
** Current wind speed in m/s (hover to see current wind gust speed)